QPF
0.00 0.00 0.00 0.00 0.00 0.00 0.00 0.00 0.00 0.00 0.00 0.00 0.00 0.00 0.00 0.00 0.00 0.00 0.00 0.00 0.00 0.00 0.00 0.00 0.00 0.00 0.00 0.00 0.00 0.00 0.00 0.00 0.00 0.00 0.00 0.00 0.00 0.00 0.00 0.00 0.00 0.00 0.00 0.00 0.00 0.00 0.00 0.00 0.00
0.00 0.00 0.00 0.00 0.00 0.00 0.00 0.00 0.00 0.00 0.00 0.00 0.00 0.00 0.00 0.00 0.00 0.00 0.00 0.00 0.00 0.00 0.00 0.00 0.00 0.00 0.00 0.00 0.00 0.00 0.00 0.00 0.00 0.00 0.00 0.00 0.00 0.00 0.00 0.00 0.00 0.00 0.00 0.00 0.00 0.00 0.00 0.00 0.00
0.00 0.00 0.00 0.00 0.00 0.00 0.00 0.00 0.00 0.00 0.00 0.00 0.00 0.00 0.00 0.00 0.00 0.00 0.00 0.00 0.00 0.00 0.00 0.00 0.00 0.00 0.00 0.00 0.00 0.00 0.00 0.00 0.00 0.00 0.00 0.00 0.00 0.00 0.00 0.00 0.00 0.00 0.00 0.00 0.00 0.00 0.00 0.00 0.00
0.00 0.00 0.00 0.00 0.00 0.00 0.00 0.00 0.00 0.00 0.00 0.00 0.00 0.00 0.00 0.00 0.00 0.00 0.00 0.00 0.00 0.00 0.00 0.00 0.00 0.00 0.00 0.00 0.00 0.00 0.00 0.00 0.00 0.00 0.00 0.00 0.00 0.00 0.00 0.00 0.00 0.00 0.00 0.00 0.00 0.00 0.00 0.00 0.00
0.00 0.00 0.00 0.00 0.00 0.00 0.00 0.00 0.00 0.00 0.00 0.00 0.00 0.00 0.00 0.00 0.00 0.00 0.00 0.00 0.00 0.00 0.00 0.00 0.00 0.00 0.00 0.00 0.00 0.00 0.00 0.00 0.00 0.00 0.00 0.00 0.00 0.00 0.00 0.00 0.00 0.00 0.00 0.00 0.00 0.00 0.00 0.00 0.00
0.00 0.00 0.00 0.00 0.00 0.00 0.00 0.00 0.00 0.00 0.00 0.00 0.00 0.00 0.00 0.00 0.00 0.00 0.00 0.00 0.00 0.00 0.00 0.00 0.00 0.00 0.00 0.00 0.00 0.00 0.00 0.00 0.00 0.00 0.00 0.00 0.00 0.00 0.00 0.00 0.00 0.00 0.00 0.00 0.00 0.00 0.00 0.00 0.00
0.00 0.00 0.00 0.00 0.00 0.00 0.00 0.00 0.00 0.00 0.00 0.00 0.00 0.00 0.00 0.00 0.00 0.01 0.00 0.00 0.00 0.00 0.00 0.00 0.00 0.00 0.00 0.00 0.00 0.00 0.00 0.00 0.00 0.00 0.00 0.00 0.00 0.00 0.00 0.00 0.00 0.00 0.00 0.00 0.00 0.00 0.00 0.00 0.00
0.00 0.00 0.00 0.00 0.00 0.00 0.00 0.00 0.00 0.00 0.00 0.00 0.00 0.00 0.00 0.00 0.00 0.00 0.00 0.00 0.00 0.00 0.00 0.00 0.00 0.00 0.00 0.00 0.00 0.00 0.00 0.00 0.00 0.00 0.00 0.00 0.00 0.00 0.00 0.00 0.00 0.00 0.00 0.00 0.00 0.00 0.00 0.00 0.00
0.00 0.00 0.00 0.00 0.00 0.00 0.00 0.00 0.00 0.00 0.00 0.00 0.00 0.00 0.00 0.00 0.00 0.00 0.00 0.00 0.00 0.00 0.00 0.00 0.00 0.00 0.00 0.00 0.00 0.00 0.00 0.00 0.00 0.00 0.00 0.00 0.00 0.00 0.00 0.00 0.00 0.00 0.00 0.00 0.00 0.00 0.00 0.00 0.00
0.00 0.00 0.00 0.00 0.00 0.00 0.00 0.00 0.00 0.00 0.00 0.00 0.00 0.00 0.00 0.00 0.00 0.00 0.00 0.00 0.00 0.00 0.00 0.00 0.00 0.00 0.00 0.00 0.00 0.01 0.00 0.00 0.00 0.00 0.00 0.00 0.00 0.00 0.00 0.00 0.00 0.00 0.00 0.00 0.00 0.00 0.00 0.00 0.00
0.00 0.00 0.00 0.00 0.00 0.00 0.00 0.00 0.00 0.00 0.00 0.00 0.00 0.00 0.00 0.00 0.00 0.00 0.00 0.00 0.00 0.00 0.00 0.00 0.00 0.00 0.00 0.00 0.00 0.00 0.00 0.00 0.00 0.00 0.00 0.00 0.00 0.00 0.00 0.00 0.00 0.00 0.00 0.00 0.00 0.00 0.00 0.00 0.00
0.00 0.00 0.00 0.00 0.00 0.00 0.00 0.00 0.00 0.00 0.00 0.00 0.00 0.00 0.00 0.00 0.00 0.00 0.00 0.00 0.00 0.00 0.00 0.00 0.00 0.00 0.00 0.00 0.00 0.00 0.00 0.00 0.00 0.00 0.00 0.00 0.00 0.00 0.00 0.00 0.00 0.00 0.00 0.00 0.00 0.00 0.00 0.00 0.00
0.00 0.00 0.00 0.00 0.00 0.00 0.00 0.02 0.01 0.00 0.00 0.00 0.00 0.00 0.00 0.00 0.00 0.00 0.00 0.00 0.00 0.00 0.00 0.00 0.00 0.00 0.00 0.00 0.00 0.00 0.00 0.00 0.00 0.00 0.00 0.00 0.00 0.00 0.00 0.00 0.00 0.00 0.00 0.00 0.00 0.00 0.00 0.00 0.00
0.00 0.00 0.00 0.00 0.00 0.00 0.00 0.00 0.01 0.00 0.00 0.00 0.00 0.00 0.00 0.00 0.00 0.00 0.00 0.00 0.00 0.00 0.00 0.00 0.00 0.00 0.00 0.00 0.00 0.00 0.00 0.00 0.00 0.00 0.00 0.00 0.00 0.00 0.00 0.00 0.00 0.00 0.00 0.00 0.00 0.00 0.00 0.00 0.00
0.00 0.00 0.00 0.00 0.00 0.00 0.00 0.00 0.00 0.00 0.00 0.00 0.00 0.00 0.00 0.00 0.00 0.00 0.00 0.00 0.00 0.00 0.00 0.00 0.00 0.00 0.00 0.00 0.00 0.00 0.00 0.00 0.00 0.00 0.00 0.00 0.00 0.00 0.00 0.00 0.00 0.00 0.00 0.00 0.00 0.00 0.00 0.00 0.00
0.00 0.00 0.00 0.00 0.00 0.00 0.00 0.00 0.00 0.00 0.00 0.00 0.00 0.00 0.00 0.00 0.00 0.00 0.00 0.00 0.00 0.00 0.00 0.00 0.00 0.00 0.00 0.00 0.00 0.00 0.00 0.00 0.00 0.00 0.00 0.00 0.00 0.00 0.00 0.00 0.00 0.00 0.00 0.00 0.00 0.00 0.00 0.00 0.00
0.00 0.00 0.00 0.00 0.00 0.00 0.00 0.00 0.00 0.00 0.00 0.00 0.00 0.00 0.00 0.00 0.00 0.00 0.00 0.00 0.00 0.00 0.00 0.00 0.00 0.00 0.00 0.01 0.01 0.01 0.00 0.00 0.00 0.00 0.00 0.00 0.00 0.00 0.00 0.00 0.00 0.00 0.00 0.00 0.00 0.00 0.00 0.00 0.00
0.00 0.00 0.00 0.00 0.00 0.00 0.00 0.00 0.00 0.00 0.00 0.00 0.00 0.00 0.00 0.00 0.00 0.00 0.00 0.00 0.00 0.00 0.00 0.00 0.00 0.00 0.00 0.01 0.03 0.03 0.03 0.02 0.00 0.00 0.00 0.00 0.00 0.00 0.00 0.00 0.00 0.00 0.00 0.00 0.00 0.00 0.00 0.00 0.00
0.00 0.00 0.00 0.00 0.00 0.00 0.00 0.00 0.00 0.00 0.00 0.00 0.00 0.00 0.00 0.00 0.00 0.00 0.00 0.00 0.00 0.00 0.00 0.00 0.00 0.00 0.00 0.00 0.00 0.00 0.00 0.00 0.00 0.00 0.00 0.00 0.00 0.00 0.00 0.00 0.00 0.00 0.00 0.00 0.00 0.00 0.00 0.00 0.00
0.00 0.00 0.00 0.00 0.00 0.00 0.00 0.00 0.00 0.00 0.00 0.00 0.00 0.00 0.00 0.00 0.00 0.00 0.00 0.00 0.00 0.00 0.00 0.00 0.00 0.00 0.00 0.00 0.00 0.00 0.00 0.00 0.00 0.00 0.00 0.00 0.00 0.00 0.00 0.00 0.00 0.00 0.00 0.00 0.00 0.00 0.00 0.00 0.00
0.00 0.00 0.00 0.00 0.00 0.00 0.00 0.00 0.00 0.00 0.00 0.00 0.00 0.00 0.00 0.00 0.00 0.00 0.00 0.00 0.00 0.00 0.00 0.00 0.00 0.00 0.00 0.00 0.00 0.00 0.00 0.00 0.00 0.00 0.00 0.00 0.00 0.00 0.00 0.00 0.00 0.00 0.00 0.00 0.00 0.00 0.00 0.00 0.00
0.00 0.00 0.00 0.00 0.00 0.00 0.00 0.00 0.00 0.00 0.00 0.00 0.00 0.00 0.00 0.00 0.00 0.00 0.00 0.00 0.00 0.00 0.00 0.00 0.00 0.00 0.00 0.00 0.00 0.00 0.00 0.00 0.00 0.00 0.00 0.00 0.00 0.00 0.00 0.00 0.00 0.00 0.00 0.00 0.00 0.00 0.00 0.00 0.00
0.00 0.00 0.00 0.00 0.00 0.00 0.01 0.01 0.00 0.00 0.00 0.00 0.00 0.00 0.00 0.00 0.00 0.00 0.00 0.00 0.00 0.00 0.00 0.00 0.00 0.00 0.00 0.00 0.00 0.00 0.00 0.00 0.00 0.00 0.00 0.00 0.00 0.00 0.00 0.00 0.00 0.00 0.00 0.00 0.00 0.00 0.00 0.00 0.00
0.00 0.00 0.00 0.00 0.00 0.00 0.00 0.00 0.00 0.00 0.00 0.00 0.00 0.00 0.00 0.00 0.00 0.00 0.00 0.00 0.00 0.00 0.00 0.00 0.00 0.00 0.00 0.00 0.00 0.00 0.00 0.00 0.00 0.00 0.00 0.00 0.00 0.00 0.00 0.00 0.00 0.00 0.00 0.00 0.00 0.00 0.00 0.00 0.00
0.00 0.00 0.00 0.00 0.00 0.00 0.00 0.00 0.00 0.00 0.00 0.00 0.00 0.00 0.00 0.00 0.00 0.00 0.00 0.00 0.00 0.00 0.00 0.00 0.00 0.00 0.00 0.00 0.00 0.00 0.00 0.00 0.00 0.00 0.00 0.00 0.00 0.00 0.00 0.00 0.00 0.00 0.00 0.00 0.00 0.00 0.00 0.00 0.00
0.00 0.00 0.00 0.00 0.00 0.00 0.00 0.00 0.00 0.00 0.00 0.00 0.00 0.00 0.00 0.00 0.00 0.00 0.00 0.00 0.00 0.00 0.00 0.00 0.00 0.00 0.00 0.00 0.00 0.00 0.00 0.00 0.00 0.00 0.00 0.00 0.00 0.00 0.00 0.00 0.00 0.00 0.00 0.00 0.00 0.00 0.00 0.00 0.00
0.00 0.00 0.00 0.00 0.00 0.00 0.00 0.00 0.00 0.00 0.00 0.00 0.00 0.00 0.00 0.00 0.00 0.00 0.00 0.00 0.00 0.00 0.00 0.00 0.00 0.00 0.00 0.00 0.00 0.00 0.00 0.00 0.00 0.00 0.00 0.00 0.00 0.00 0.00 0.00 0.00 0.00 0.00 0.00 0.00 0.00 0.00 0.00 0.00
0.00 0.00 0.00 0.00 0.00 0.00 0.00 0.00 0.00 0.00 0.00 0.00 0.00 0.00 0.00 0.00 0.00 0.00 0.00 0.00 0.00 0.00 0.00 0.00 0.00 0.00 0.00 0.00 0.00 0.00 0.00 0.00 0.00 0.00 0.00 0.00 0.00 0.00 0.00 0.00 0.00 0.00 0.00 0.00 0.00 0.00 0.00 0.00 0.00
0.00 0.00 0.00 0.00 0.00 0.00 0.00 0.00 0.00 0.00 0.00 0.00 0.00 0.00 0.00 0.00 0.00 0.00 0.00 0.00 0.00 0.00 0.00 0.00 0.00 0.00 0.00 0.00 0.00 0.00 0.00 0.00 0.00 0.00 0.00 0.00 0.00 0.00 0.00 0.00 0.00 0.00 0.00 0.00 0.00 0.00 0.00 0.00 0.00
0.00 0.00 0.00 0.00 0.00 0.00 0.00 0.00 0.00 0.00 0.00 0.00 0.00 0.00 0.00 0.00 0.00 0.00 0.00 0.00 0.00 0.00 0.00 0.00 0.00 0.00 0.00 0.00 0.00 0.00 0.00 0.00 0.00 0.00 0.00 0.00 0.00 0.00 0.00 0.00 0.00 0.00 0.00 0.00 0.00 0.00 0.00 0.00 0.00
MSLP
1011.83 1011.39 1010.84 1009.68 1007.60 1004.09 1003.07 1003.41 1003.52 1004.40 1005.28 1006.55 1006.85 1007.46 1007.82 1008.89 1009.29 1010.56 1012.29 1013.35 1013.64 1014.50 1015.39 1016.20 1016.82 1017.06 1017.29 1017.30 1017.25 1017.30 1017.51 1017.65 1017.78 1017.92 1018.01 1018.12 1018.26 1018.27 1018.33 1018.39 1018.37 1018.42 1018.46 1018.35 1018.46 1018.46 1018.60 1018.75 1018.84
1010.81 1010.82 1010.05 1007.40 1004.97 1002.35 1002.65 1003.31 1003.41 1004.51 1006.08 1007.10 1007.78 1008.26 1008.61 1010.20 1011.14 1012.05 1012.72 1013.60 1013.94 1014.66 1015.44 1016.06 1017.13 1017.31 1017.51 1017.55 1017.46 1017.48 1017.60 1017.78 1017.94 1018.08 1018.24 1018.37 1018.44 1018.55 1018.57 1018.68 1018.74 1018.63 1018.60 1018.52 1018.57 1018.69 1018.78 1019.00 1019.08
1010.53 1010.32 1008.19 1005.37 1003.26 1001.42 1002.09 1003.33 1004.17 1005.57 1006.31 1006.76 1007.88 1008.66 1009.56 1011.38 1012.00 1012.33 1013.08 1013.77 1014.20 1014.88 1015.43 1016.49 1017.37 1017.63 1017.81 1017.84 1017.74 1017.81 1017.96 1018.04 1018.12 1018.23 1018.36 1018.51 1018.67 1018.83 1018.80 1018.83 1018.84 1018.86 1018.87 1018.87 1018.92 1019.06 1019.06 1019.16 1019.24
1009.40 1008.67 1007.46 1004.94 1002.51 1003.24 1003.01 1003.80 1004.74 1005.52 1006.50 1007.07 1007.78 1009.38 1011.59 1012.85 1012.67 1013.09 1013.89 1013.96 1014.54 1015.03 1015.55 1017.23 1017.67 1017.93 1018.16 1018.25 1018.18 1018.16 1018.27 1018.47 1018.62 1018.71 1018.75 1018.84 1018.92 1019.01 1019.14 1019.09 1019.08 1019.16 1019.17 1019.28 1019.36 1019.35 1019.45 1019.57 1019.59
1008.78 1007.38 1005.30 1003.65 1002.96 1003.65 1003.84 1004.46 1005.07 1005.25 1006.43 1007.32 1007.93 1009.74 1011.67 1013.85 1013.66 1014.09 1014.23 1014.39 1014.74 1015.42 1016.02 1017.10 1017.93 1018.17 1018.42 1018.63 1018.66 1018.63 1018.68 1018.75 1018.82 1018.91 1018.99 1019.05 1019.11 1019.24 1019.28 1019.31 1019.41 1019.58 1019.59 1019.56 1019.61 1019.71 1019.77 1019.78 1019.81
1007.24 1006.80 1004.49 1002.84 1003.04 1003.96 1004.31 1004.96 1005.43 1005.90 1007.05 1007.73 1008.33 1009.96 1012.56 1014.63 1014.97 1015.42 1015.26 1014.85 1015.07 1015.76 1016.17 1017.10 1018.12 1018.40 1018.66 1018.90 1019.06 1019.09 1019.12 1019.18 1019.24 1019.27 1019.29 1019.30 1019.33 1019.36 1019.46 1019.59 1019.69 1019.70 1019.78 1019.83 1019.86 1019.98 1019.98 1019.97 1019.93
1006.86 1005.71 1003.92 1002.80 1003.14 1004.07 1004.81 1005.49 1005.88 1006.34 1007.23 1007.92 1008.81 1010.01 1012.78 1014.31 1015.56 1015.95 1016.12 1016.15 1015.78 1016.21 1016.38 1016.88 1017.44 1018.33 1018.86 1019.11 1019.24 1019.31 1019.33 1019.41 1019.50 1019.59 1019.66 1019.71 1019.76 1019.80 1019.80 1019.78 1019.78 1019.77 1019.88 1019.96 1020.00 1020.12 1020.07 1020.09 1020.06
1006.82 1005.98 1004.40 1003.82 1003.41 1003.96 1005.43 1006.01 1006.59 1006.87 1008.47 1009.52 1009.28 1010.17 1012.13 1014.47 1015.90 1016.21 1016.48 1016.74 1017.04 1017.29 1017.41 1017.33 1017.51 1017.70 1018.11 1018.78 1019.40 1019.49 1019.55 1019.64 1019.75 1019.83 1019.92 1019.93 1019.79 1019.78 1019.81 1019.82 1020.00 1020.16 1020.15 1020.12 1020.14 1020.15 1020.00 1019.99 1019.95
1007.45 1005.54 1004.02 1003.63 1003.80 1004.72 1006.13 1006.65 1008.07 1008.78 1009.50 1010.59 1010.54 1010.31 1012.33 1014.58 1015.78 1016.17 1016.54 1016.87 1017.21 1017.43 1017.64 1017.84 1017.77 1018.11 1018.30 1018.23 1019.03 1019.47 1019.64 1019.71 1019.67 1019.67 1019.90 1019.73 1018.83 1019.00 1019.08 1019.77 1020.01 1020.05 1020.06 1020.09 1020.13 1020.11 1020.06 1020.07 1019.89
1006.65 1005.07 1004.16 1004.72 1004.62 1005.38 1006.28 1006.77 1008.39 1008.94 1010.12 1011.23 1011.58 1012.51 1013.38 1014.22 1014.75 1015.24 1015.75 1016.37 1016.89 1017.26 1017.54 1017.65 1018.06 1018.37 1018.42 1018.08 1018.49 1018.55 1018.83 1018.75 1018.91 1019.02 1019.32 1019.10 1019.25 1019.26 1019.36 1019.58 1019.91 1019.94 1019.99 1019.96 1019.93 1019.95 1019.95 1019.86 1018.49
1006.06 1005.17 1004.89 1005.77 1005.99 1005.99 1007.42 1008.64 1009.21 1009.28 1010.36 1011.48 1011.87 1012.52 1013.38 1013.94 1014.46 1014.84 1015.12 1015.60 1016.03 1016.67 1017.52 1017.85 1018.10 1018.29 1018.33 1018.02 1018.16 1018.07 1018.64 1018.77 1019.02 1019.30 1019.29 1019.22 1019.13 1019.02 1018.86 1018.74 1018.70 1018.83 1019.39 1018.63 1018.95 1018.83 1018.51 1018.32 1018.46
1006.09 1006.00 1006.27 1006.39 1006.93 1006.71 1007.72 1009.35 1010.53 1010.99 1011.90 1012.55 1013.10 1013.31 1013.84 1014.10 1014.50 1014.74 1015.02 1015.52 1015.93 1016.52 1017.05 1017.65 1017.76 1018.40 1018.60 1018.49 1018.48 1018.38 1018.38 1018.58 1018.57 1018.93 1019.26 1019.05 1018.61 1018.79 1018.80 1018.50 1018.64 1018.73 1018.46 1018.61 1018.42 1018.14 1018.38 1018.50 1018.32
1006.11 1006.29 1007.12 1007.43 1007.70 1007.73 1009.22 1010.00 1011.23 1012.77 1013.46 1013.92 1014.35 1014.40 1014.50 1014.90 1015.38 1015.65 1015.90 1016.22 1016.52 1016.84 1017.20 1017.60 1017.78 1018.38 1018.64 1018.13 1018.07 1018.24 1018.51 1018.99 1019.67 1019.55 1019.90 1019.56 1018.88 1018.83 1018.68 1018.50 1018.40 1018.43 1018.37 1018.24 1018.18 1018.01 1017.92 1017.87 1017.73
1005.91 1006.69 1007.26 1007.74 1008.36 1008.89 1009.52 1011.01 1011.67 1013.65 1013.88 1014.24 1014.63 1014.97 1015.20 1015.62 1016.06 1016.43 1016.54 1016.72 1016.98 1017.30 1017.64 1017.96 1018.14 1018.29 1017.99 1018.64 1018.98 1019.32 1019.83 1020.12 1020.15 1020.12 1020.44 1020.32 1019.89 1019.77 1018.97 1018.67 1018.74 1018.72 1018.69 1018.34 1018.12 1017.75 1017.77 1017.45 1017.29
1006.84 1006.92 1007.72 1007.98 1008.35 1008.82 1009.62 1010.99 1012.32 1013.55 1013.88 1014.24 1014.83 1015.41 1015.95 1016.40 1016.73 1016.98 1017.35 1017.47 1017.56 1017.69 1018.21 1018.89 1019.00 1019.22 1019.59 1020.07 1020.13 1020.34 1020.53 1020.51 1020.73 1020.71 1021.14 1021.02 1020.54 1020.14 1019.71 1019.40 1019.35 1019.34 1019.14 1019.01 1018.48 1018.17 1017.65 1017.36 1016.93
1006.49 1006.49 1006.62 1007.63 1008.26 1009.15 1009.34 1010.08 1012.75 1013.70 1013.94 1014.26 1014.87 1015.63 1016.29 1016.82 1017.34 1017.78 1017.99 1017.98 1018.08 1018.24 1019.36 1019.62 1019.98 1020.21 1020.35 1020.64 1020.81 1021.30 1021.36 1021.39 1021.65 1021.81 1021.59 1021.73 1021.75 1021.33 1021.05 1020.60 1020.46 1020.25 1019.64 1019.41 1019.09 1018.64 1018.26 1017.84 1017.53
1005.56 1004.76 1005.52 1007.17 1008.06 1008.80 1009.61 1009.88 1012.77 1013.72 1013.98 1014.42 1014.96 1015.62 1016.38 1017.17 1017.82 1018.26 1018.44 1018.44 1018.43 1019.22 1020.14 1020.36 1020.71 1021.11 1021.38 1021.70 1022.08 1022.03 1022.57 1022.61 1022.78 1022.49 1021.97 1022.10 1021.88 1021.46 1021.14 1021.09 1020.99 1020.65 1020.27 1020.28 1020.00 1019.48 1019.24 1018.65 1018.60
1004.15 1004.57 1004.60 1005.89 1007.86 1008.34 1009.13 1010.06 1012.55 1013.69 1014.07 1014.59 1014.92 1015.72 1016.31 1016.96 1017.82 1018.64 1018.83 1018.94 1018.99 1019.67 1020.73 1021.11 1021.43 1021.79 1022.12 1022.18 1022.64 1022.80 1023.06 1023.46 1023.00 1022.98 1022.94 1022.54 1022.31 1022.09 1021.74 1021.68 1021.77 1021.18 1020.98 1020.88 1020.77 1020.27 1019.70 1019.18 1018.94
1004.14 1004.16 1004.41 1005.25 1007.10 1007.94 1008.75 1010.53 1012.24 1013.35 1014.01 1014.74 1015.15 1015.61 1016.38 1017.10 1018.03 1018.73 1019.16 1019.42 1019.54 1019.84 1020.85 1021.40 1021.70 1022.12 1022.23 1022.31 1022.12 1022.42 1022.60 1022.57 1022.69 1023.16 1023.25 1023.38 1022.98 1022.83 1022.54 1022.07 1022.08 1021.77 1021.92 1021.96 1021.56 1020.89 1020.22 1019.43 1019.58
1005.34 1004.39 1004.09 1006.07 1007.96 1008.15 1008.89 1010.36 1012.03 1013.11 1013.70 1014.46 1015.09 1015.59 1016.46 1017.46 1018.04 1018.86 1019.28 1019.57 1019.85 1020.06 1020.52 1021.36 1021.79 1022.12 1022.29 1022.41 1022.51 1022.58 1022.66 1022.79 1022.97 1023.41 1023.61 1023.60 1023.58 1023.55 1023.25 1023.00 1022.77 1022.82 1022.35 1022.54 1022.35 1021.92 1021.11 1020.35 1020.36
1005.24 1004.60 1004.39 1005.81 1008.07 1008.25 1009.14 1010.58 1011.71 1012.84 1013.57 1014.33 1015.05 1015.63 1016.51 1017.19 1017.91 1018.81 1019.39 1019.79 1020.15 1020.51 1020.79 1021.05 1021.50 1021.75 1021.91 1022.08 1022.38 1022.74 1022.93 1023.00 1023.13 1023.53 1023.70 1024.21 1024.10 1023.97 1023.86 1023.73 1023.55 1023.30 1023.00 1022.91 1022.99 1022.76 1022.28 1021.35 1020.89
1004.72 1004.99 1005.20 1005.11 1007.27 1007.27 1008.76 1008.87 1010.53 1011.65 1012.67 1013.46 1014.37 1015.41 1016.40 1017.27 1017.89 1018.54 1019.27 1019.86 1020.40 1020.98 1021.40 1021.60 1021.95 1022.22 1022.37 1022.20 1022.27 1022.22 1022.41 1023.01 1023.71 1023.96 1024.30 1024.45 1024.57 1024.54 1024.42 1024.36 1024.25 1024.11 1023.84 1023.79 1023.57 1023.46 1023.00 1022.54 1021.89
1004.87 1004.85 1005.27 1005.45 1006.37 1006.78 1008.77 1009.43 1007.25 1009.63 1010.70 1011.47 1012.92 1014.39 1015.71 1016.98 1017.73 1018.42 1019.08 1019.75 1020.50 1021.22 1021.66 1022.04 1022.34 1022.64 1022.87 1022.90 1022.94 1022.88 1023.23 1023.72 1024.11 1024.36 1024.55 1024.77 1025.01 1025.07 1024.96 1024.94 1024.82 1024.67 1024.36 1024.42 1024.28 1023.94 1023.62 1023.15 1022.96
1005.90 1005.45 1005.44 1005.55 1005.93 1005.61 1005.53 1006.49 1005.32 1006.17 1007.14 1009.67 1011.69 1013.12 1014.79 1016.21 1017.41 1018.34 1019.15 1019.94 1020.54 1021.26 1021.86 1022.40 1022.72 1023.06 1023.20 1023.43 1023.61 1023.66 1023.85 1023.96 1024.16 1024.48 1024.56 1024.75 1024.93 1025.12 1025.39 1025.29 1025.25 1025.12 1024.86 1024.84 1024.71 1024.49 1024.42 1024.12 1023.84
1005.90 1005.15 1004.58 1004.67 1004.28 1002.94 1004.32 1004.43 1003.56 1003.25 1005.85 1007.43 1009.23 1011.20 1013.59 1015.34 1016.54 1017.60 1018.69 1019.58 1020.52 1021.30 1021.93 1022.38 1022.74 1023.21 1023.57 1023.92 1024.02 1024.23 1024.47 1024.64 1024.78 1024.80 1024.99 1024.99 1025.18 1025.54 1025.86 1025.64 1025.67 1025.52 1025.66 1025.59 1025.29 1025.12 1024.84 1024.69 1024.50
1004.65 1004.17 1003.15 1002.86 1002.64 1001.97 1003.25 1002.39 1001.21 1003.58 1004.84 1006.42 1008.22 1010.67 1012.93 1014.38 1015.83 1016.98 1018.05 1018.95 1020.15 1021.12 1021.77 1022.22 1022.69 1023.22 1023.86 1024.25 1024.52 1024.73 1024.78 1024.89 1025.20 1025.44 1025.53 1025.53 1025.63 1025.99 1026.26 1026.23 1026.15 1026.20 1026.15 1025.83 1025.50 1025.15 1025.15 1025.10 1024.96
1004.08 1003.70 1003.09 1002.60 1002.75 1002.10 1001.70 1002.19 1002.41 1003.19 1003.72 1005.37 1007.24 1009.71 1011.97 1013.78 1015.23 1016.55 1017.70 1018.73 1019.73 1020.67 1021.50 1022.08 1022.63 1023.24 1023.95 1024.35 1024.70 1024.99 1025.22 1025.35 1025.65 1025.83 1025.77 1025.89 1026.09 1026.45 1026.66 1026.66 1026.62 1026.62 1026.48 1026.33 1025.78 1025.60 1025.76 1025.43 1025.44
1003.75 1003.27 1003.47 1002.99 1002.32 1001.17 1000.44 999.73 1000.07 1001.84 1003.30 1004.64 1006.47 1008.26 1010.58 1012.57 1014.13 1015.63 1016.97 1018.17 1019.27 1020.29 1021.34 1022.05 1022.66 1023.15 1023.87 1024.40 1024.66 1025.07 1025.52 1025.74 1025.92 1026.00 1026.20 1026.43 1026.65 1026.83 1026.89 1027.02 1027.01 1026.88 1026.81 1026.63 1026.28 1026.01 1026.18 1025.97 1026.08
1003.32 1003.12 1002.88 1002.71 1002.41 1001.16 1000.04 998.38 999.34 1000.17 1002.30 1003.95 1005.24 1007.32 1009.19 1010.89 1012.62 1014.26 1015.89 1017.45 1018.68 1019.84 1020.92 1021.75 1022.40 1023.03 1023.73 1024.29 1024.64 1025.19 1025.64 1025.98 1026.18 1026.35 1026.60 1026.77 1026.92 1027.19 1027.26 1027.36 1027.35 1027.28 1027.17 1027.05 1026.90 1026.66 1026.63 1026.53 1026.46
1002.38 1002.20 1002.33 1002.01 1001.69 1001.11 999.95 998.55 999.37 999.51 1000.79 1002.70 1004.05 1006.13 1008.10 1010.19 1011.69 1013.30 1014.88 1016.47 1017.93 1019.19 1020.29 1021.16 1021.92 1022.67 1023.45 1024.12 1024.71 1025.15 1025.63 1026.07 1026.33 1026.64 1027.01 1027.15 1027.36 1027.53 1027.64 1027.58 1027.62 1027.69 1027.67 1027.58 1027.29 1026.93 1026.81 1026.67 1026.53
Thickness
5777 5781 5786 5787 5782 5806 5790 5789 5807 5790 5786 5790 5793 5780 5776 5770 5760 5745 5760 5754 5752 5746 5737 5729 5723 5720 5717 5715 5714 5712 5709 5707 5705 5703 5702 5702 5701 5700 5700 5700 5701 5701 5702 5703 5703 5704 5704 5704 5705
5782 5783 5785 5795 5788 5794 5787 5802 5796 5797 5790 5790 5783 5777 5773 5752 5762 5755 5753 5754 5751 5745 5738 5732 5723 5719 5717 5715 5714 5712 5710 5707 5706 5704 5703 5702 5701 5701 5702 5701 5700 5702 5704 5705 5706 5705 5705 5705 5707
5782 5783 5783 5794 5799 5800 5791 5799 5797 5792 5796 5791 5776 5783 5772 5751 5760 5760 5761 5756 5752 5745 5739 5730 5724 5720 5717 5715 5714 5712 5710 5709 5707 5706 5705 5704 5702 5702 5702 5702 5703 5703 5703 5704 5704 5705 5706 5706 5706
5781 5784 5785 5782 5794 5791 5796 5799 5797 5791 5792 5793 5787 5761 5761 5760 5760 5763 5759 5757 5751 5746 5740 5727 5722 5719 5717 5715 5714 5712 5710 5708 5706 5705 5704 5703 5701 5701 5701 5701 5702 5702 5702 5702 5703 5704 5704 5704 5704
5780 5781 5774 5783 5787 5788 5799 5802 5799 5794 5788 5782 5786 5760 5755 5751 5761 5759 5758 5756 5751 5745 5739 5728 5722 5719 5716 5713 5713 5712 5710 5709 5707 5706 5704 5704 5703 5702 5702 5702 5702 5701 5701 5702 5702 5702 5702 5702 5703
5768 5772 5766 5776 5782 5786 5795 5800 5796 5791 5785 5782 5777 5767 5752 5748 5748 5747 5751 5753 5749 5744 5739 5730 5723 5719 5716 5713 5710 5710 5710 5709 5708 5707 5706 5705 5704 5704 5703 5703 5702 5701 5701 5701 5701 5701 5702 5702 5702
5759 5762 5767 5785 5777 5776 5784 5798 5787 5787 5784 5779 5783 5763 5753 5749 5744 5744 5743 5743 5745 5741 5739 5733 5727 5721 5716 5714 5711 5710 5709 5708 5708 5707 5707 5706 5705 5704 5704 5704 5703 5703 5703 5702 5702 5702 5702 5702 5702
5764 5758 5757 5769 5771 5773 5783 5787 5791 5788 5770 5780 5786 5758 5749 5747 5741 5741 5740 5738 5736 5734 5732 5731 5728 5725 5721 5716 5712 5711 5710 5709 5708 5707 5707 5707 5708 5708 5707 5707 5705 5704 5704 5704 5704 5704 5705 5705 5705
5760 5749 5753 5766 5769 5768 5778 5772 5775 5778 5766 5761 5769 5776 5762 5749 5741 5738 5735 5733 5732 5732 5731 5728 5727 5724 5721 5721 5715 5713 5711 5711 5710 5710 5708 5709 5713 5712 5712 5708 5706 5706 5706 5706 5706 5706 5706 5706 5707
5747 5749 5758 5766 5775 5767 5774 5777 5766 5766 5758 5749 5754 5755 5754 5750 5746 5742 5738 5732 5730 5729 5729 5728 5725 5722 5721 5723 5719 5719 5716 5716 5714 5713 5710 5712 5711 5710 5709 5708 5707 5706 5706 5706 5707 5707 5707 5708 5715
5749 5745 5759 5754 5763 5772 5757 5751 5761 5762 5749 5749 5747 5748 5749 5748 5745 5742 5742 5739 5737 5734 5728 5726 5724 5722 5721 5723 5722 5722 5717 5715 5713 5711 5710 5711 5711 5712 5712 5713 5713 5711 5708 5712 5710 5710 5712 5713 5712
5733 5744 5745 5749 5752 5761 5752 5748 5734 5744 5739 5745 5743 5745 5742 5741 5739 5740 5739 5736 5736 5732 5730 5726 5724 5720 5718 5718 5718 5718 5718 5716 5715 5712 5710 5711 5713 5712 5712 5713 5712 5711 5712 5711 5712 5713 5710 5709 5710
5730 5735 5732 5737 5741 5748 5741 5734 5725 5718 5725 5729 5728 5731 5731 5730 5729 5730 5731 5730 5729 5726 5726 5725 5722 5718 5716 5719 5719 5718 5715 5711 5706 5706 5704 5706 5710 5709 5710 5711 5711 5710 5710 5711 5711 5712 5712 5712 5712
5734 5728 5725 5729 5728 5729 5725 5718 5723 5707 5718 5719 5720 5720 5722 5721 5720 5719 5721 5721 5721 5720 5720 5719 5717 5715 5717 5713 5711 5708 5704 5702 5700 5700 5697 5698 5699 5699 5704 5705 5704 5704 5703 5705 5706 5709 5708 5710 5712
5716 5709 5710 5715 5722 5720 5727 5708 5701 5706 5712 5711 5711 5711 5709 5709 5711 5710 5709 5710 5713 5714 5713 5707 5707 5706 5703 5700 5698 5697 5695 5696 5693 5692 5689 5689 5691 5692 5694 5695 5695 5695 5695 5696 5699 5700 5703 5705 5708
5703 5709 5702 5709 5712 5712 5719 5710 5694 5700 5703 5704 5705 5702 5701 5700 5699 5699 5700 5702 5704 5706 5698 5698 5696 5695 5694 5691 5689 5686 5684 5684 5681 5680 5680 5679 5678 5679 5680 5682 5682 5683 5686 5687 5688 5692 5693 5696 5698
5698 5701 5705 5692 5706 5703 5704 5699 5688 5694 5697 5695 5698 5696 5694 5691 5690 5689 5691 5693 5697 5693 5687 5687 5686 5684 5683 5680 5677 5677 5673 5672 5669 5669 5671 5669 5670 5673 5673 5673 5673 5674 5676 5675 5676 5678 5679 5682 5680
5690 5693 5706 5693 5693 5700 5697 5697 5682 5684 5687 5687 5692 5690 5689 5688 5684 5680 5682 5684 5687 5684 5676 5675 5674 5672 5671 5670 5667 5665 5663 5658 5661 5659 5658 5659 5660 5661 5662 5662 5661 5663 5663 5663 5663 5665 5668 5672 5671
5698 5698 5697 5709 5699 5694 5694 5682 5674 5676 5678 5676 5680 5683 5681 5680 5676 5674 5674 5675 5677 5677 5670 5667 5666 5664 5664 5663 5665 5661 5658 5656 5653 5649 5649 5648 5650 5650 5651 5654 5653 5653 5650 5648 5649 5653 5657 5663 5659
5674 5683 5697 5684 5677 5684 5679 5671 5669 5668 5671 5671 5671 5673 5671 5667 5669 5666 5667 5668 5668 5668 5667 5661 5659 5657 5657 5655 5653 5652 5649 5647 5645 5641 5640 5640 5639 5638 5640 5641 5641 5639 5641 5638 5637 5638 5643 5647 5646
5662 5670 5686 5672 5661 5671 5666 5647 5652 5658 5662 5663 5664 5666 5663 5662 5662 5659 5658 5658 5658 5657 5657 5657 5655 5653 5652 5649 5645 5642 5640 5639 5638 5635 5633 5628 5629 5629 5628 5628 5628 5627 5628 5628 5625 5625 5626 5631 5633
5650 5672 5671 5676 5650 5653 5654 5644 5642 5651 5651 5655 5656 5655 5652 5652 5654 5653 5650 5649 5647 5645 5644 5644 5643 5641 5640 5640 5639 5640 5639 5634 5627 5625 5621 5620 5618 5617 5617 5616 5616 5615 5615 5614 5614 5613 5614 5615 5617
5648 5665 5659 5665 5651 5651 5627 5620 5677 5655 5646 5658 5658 5654 5650 5645 5645 5644 5644 5642 5638 5634 5633 5632 5631 5629 5628 5627 5626 5627 5623 5620 5616 5614 5613 5610 5607 5606 5607 5606 5605 5605 5606 5604 5603 5603 5602 5603 5601
5641 5642 5647 5650 5646 5627 5655 5648 5666 5665 5676 5662 5658 5654 5648 5642 5637 5636 5634 5630 5627 5624 5622 5620 5619 5618 5617 5615 5614 5614 5612 5611 5609 5607 5606 5604 5601 5599 5598 5597 5596 5595 5595 5593 5592 5591 5588 5588 5587
5623 5628 5616 5611 5621 5636 5666 5647 5668 5700 5681 5677 5666 5659 5647 5639 5635 5631 5623 5618 5616 5615 5613 5611 5610 5607 5605 5603 5603 5602 5600 5599 5598 5598 5596 5597 5595 5591 5588 5588 5586 5585 5582 5580 5580 5578 5577 5575 5573
5620 5628 5621 5605 5620 5643 5661 5639 5679 5688 5681 5677 5670 5656 5641 5633 5631 5625 5619 5617 5612 5608 5606 5604 5602 5599 5595 5593 5592 5592 5592 5592 5589 5587 5586 5586 5584 5580 5577 5576 5575 5572 5570 5570 5569 5569 5566 5562 5560
5618 5612 5646 5638 5646 5643 5657 5656 5670 5672 5675 5672 5666 5653 5641 5631 5625 5618 5614 5610 5606 5603 5599 5596 5593 5590 5586 5585 5584 5583 5582 5581 5578 5576 5575 5574 5571 5567 5565 5563 5562 5560 5559 5558 5558 5556 5552 5551 5546
5614 5635 5611 5622 5606 5617 5649 5659 5659 5659 5662 5666 5658 5653 5642 5630 5621 5613 5608 5605 5601 5596 5590 5587 5585 5582 5579 5577 5577 5574 5570 5569 5567 5567 5565 5562 5560 5557 5555 5552 5550 5549 5547 5546 5546 5544 5539 5537 5532
5606 5601 5610 5621 5622 5622 5629 5654 5686 5676 5664 5660 5663 5652 5642 5634 5624 5615 5609 5601 5596 5590 5584 5580 5577 5576 5573 5570 5569 5566 5562 5559 5557 5556 5554 5553 5551 5547 5544 5542 5539 5538 5536 5535 5533 5531 5527 5524 5520
5614 5609 5612 5601 5605 5622 5631 5651 5678 5684 5676 5664 5662 5651 5642 5630 5621 5613 5606 5598 5592 5586 5581 5577 5574 5570 5567 5563 5560 5558 5555 5551 5549 5547 5544 5543 5540 5537 5534 5532 5529 5527 5525 5522 5521 5520 5517 5514 5511